ANZ90 RJAA-NZAA

Flight info

Callsign ANZ90
Flight time N/A
Altitude 33000
Route OLVAN Y823 MERED Y821 DAGDA A337 SAGOP 2100N14629E 20N147E 15N149E 10N152E 05N154E/N0491F350 00N156E DCT PONOK B452 HN A597 GOPRA/N0481F370 DCT 25S168E DCT LEKAX A597 DUGAN
Aircraft B77W/H-SDE1E2E3FGHIJ2J3J4J5M1RWXY/LB1D1

Departure

Time N/A
Airport Narita International Airport (RJAA)

Arrival

Time 2026-04-30 22:21
Airport Auckland International Airport (NZAA)
Time Latitude Longitude Altitude Speed Heading
2026-04-30 21:55 -36.40318 175.46449 38106 ft 394 kts 39°
2026-04-30 21:55 -36.38196 175.48683 38128 ft 394 kts 39°
2026-04-30 21:56 -36.34001 175.53095 38169 ft 395 kts 38°
2026-04-30 21:56 -36.31738 175.55031 38149 ft 389 kts 25°
2026-04-30 21:56 -36.29267 175.56329 37841 ft 379 kts 12°
2026-04-30 21:57 -36.26690 175.56905 37187 ft 374 kts 358°
2026-04-30 21:57 -36.24073 175.56686 36480 ft 366 kts 343°
2026-04-30 21:57 -36.21687 175.55724 35976 ft 356 kts 332°
2026-04-30 21:57 -36.19421 175.54390 35527 ft 350 kts 325°
2026-04-30 21:58 -36.17477 175.52653 35064 ft 343 kts 313°
2026-04-30 21:58 -36.15912 175.50444 34623 ft 335 kts 301°
2026-04-30 21:58 -36.14811 175.47955 34173 ft 329 kts 289°
2026-04-30 21:58 -36.14167 175.45245 33692 ft 325 kts 278°
2026-04-30 21:59 -36.13981 175.42482 32834 ft 334 kts 268°
2026-04-30 21:59 -36.14247 175.39540 31532 ft 356 kts 260°
2026-04-30 21:59 -36.14715 175.36478 30340 ft 384 kts 259°
2026-04-30 22:00 -36.15800 175.29544 29357 ft 438 kts 259°
2026-04-30 22:00 -36.17007 175.21797 28428 ft 473 kts 259°
2026-04-30 22:00 -36.17632 175.17775 27965 ft 472 kts 259°
2026-04-30 22:01 -36.18247 175.13805 27514 ft 468 kts 259°
2026-04-30 22:01 -36.18874 175.09750 27057 ft 466 kts 259°
2026-04-30 22:01 -36.19497 175.05713 26598 ft 465 kts 259°
2026-04-30 22:01 -36.20116 175.01692 26139 ft 464 kts 259°
2026-04-30 22:02 -36.20721 174.97754 25690 ft 463 kts 259°
2026-04-30 22:02 -36.21322 174.93829 25382 ft 456 kts 259°
2026-04-30 22:02 -36.21901 174.90047 25360 ft 440 kts 259°
2026-04-30 22:02 -36.22639 174.86388 25102 ft 429 kts 251°
2026-04-30 22:03 -36.23780 174.82959 24292 ft 432 kts 242°
2026-04-30 22:03 -36.25377 174.79719 23384 ft 436 kts 233°
2026-04-30 22:03 -36.27399 174.76833 22664 ft 434 kts 223°
2026-04-30 22:03 -36.29720 174.74428 22125 ft 428 kts 216°
2026-04-30 22:04 -36.32192 174.72170 21590 ft 422 kts 215°
2026-04-30 22:04 -36.34629 174.69955 21017 ft 419 kts 215°
2026-04-30 22:04 -36.39349 174.65663 19834 ft 413 kts 215°
2026-04-30 22:05 -36.41692 174.63530 19242 ft 411 kts 215°
2026-04-30 22:05 -36.44017 174.61410 18649 ft 408 kts 215°
2026-04-30 22:05 -36.46358 174.59277 18029 ft 405 kts 214°
2026-04-30 22:05 -36.48705 174.57135 17377 ft 402 kts 214°
2026-04-30 22:06 -36.51014 174.55028 16742 ft 400 kts 214°
2026-04-30 22:06 -36.55648 174.50792 15459 ft 395 kts 214°
2026-04-30 22:06 -36.57919 174.48714 14848 ft 392 kts 214°
2026-04-30 22:07 -36.60176 174.46648 14225 ft 390 kts 214°
2026-04-30 22:07 -36.62442 174.44571 13596 ft 387 kts 214°
2026-04-30 22:07 -36.64677 174.42522 12979 ft 385 kts 213°
2026-04-30 22:07 -36.66923 174.40462 12370 ft 382 kts 213°
2026-04-30 22:08 -36.69085 174.38478 11775 ft 380 kts 213°
2026-04-30 22:08 -36.71246 174.36491 11455 ft 369 kts 213°
2026-04-30 22:08 -36.73282 174.34618 11390 ft 352 kts 214°
2026-04-30 22:08 -36.75215 174.32838 11351 ft 335 kts 213°
2026-04-30 22:09 -36.77090 174.31111 11317 ft 319 kts 213°
2026-04-30 22:09 -36.78881 174.29428 11243 ft 306 kts 214°
2026-04-30 22:09 -36.80599 174.27786 10880 ft 305 kts 214°
2026-04-30 22:09 -36.82323 174.26135 10459 ft 305 kts 214°
2026-04-30 22:10 -36.84046 174.24475 10064 ft 305 kts 214°
2026-04-30 22:10 -36.85748 174.22819 9689 ft 303 kts 214°
2026-04-30 22:10 -36.87424 174.21188 9370 ft 300 kts 214°
2026-04-30 22:10 -36.89099 174.19563 9036 ft 297 kts 214°
2026-04-30 22:11 -36.92532 174.16643 8316 ft 286 kts 194°
2026-04-30 22:11 -36.94498 174.16386 7927 ft 276 kts 168°
2026-04-30 22:11 -36.96288 174.17210 7710 ft 259 kts 142°
2026-04-30 22:12 -36.97532 174.18790 7669 ft 251 kts 117°
2026-04-30 22:12 -36.98238 174.20811 7572 ft 250 kts 109°
2026-04-30 22:12 -36.98873 174.22919 7360 ft 251 kts 109°
2026-04-30 22:12 -36.99507 174.25034 7020 ft 251 kts 109°
2026-04-30 22:13 -37.00120 174.27081 6695 ft 251 kts 109°
2026-04-30 22:13 -37.00738 174.29149 6383 ft 249 kts 110°
2026-04-30 22:13 -37.01345 174.31181 6083 ft 249 kts 110°
2026-04-30 22:13 -37.01958 174.33235 5778 ft 248 kts 110°
2026-04-30 22:14 -37.02557 174.35240 5478 ft 246 kts 110°
2026-04-30 22:14 -37.03167 174.37289 5174 ft 245 kts 110°
2026-04-30 22:14 -37.03770 174.39314 4875 ft 244 kts 110°
2026-04-30 22:14 -37.04365 174.41316 4581 ft 243 kts 110°
2026-04-30 22:15 -37.04962 174.43326 4313 ft 241 kts 109°
2026-04-30 22:15 -37.05540 174.45270 4235 ft 230 kts 109°
2026-04-30 22:15 -37.06089 174.47119 4173 ft 223 kts 109°
2026-04-30 22:15 -37.06632 174.48955 4092 ft 223 kts 109°
2026-04-30 22:16 -37.07182 174.50813 4001 ft 223 kts 109°
2026-04-30 22:16 -37.07717 174.52664 3903 ft 223 kts 105°
2026-04-30 22:17 -37.06858 174.58255 3110 ft 224 kts 71°
2026-04-30 22:17 -37.06363 174.60010 2836 ft 209 kts 71°
2026-04-30 22:17 -37.05481 174.63144 2356 ft 177 kts 71°
2026-04-30 22:18 -37.05090 174.64557 2130 ft 164 kts 71°
2026-04-30 22:18 -37.04414 174.67029 1745 ft 141 kts 70°
2026-04-30 22:19 -37.03771 174.69354 1359 ft 139 kts 71°
2026-04-30 22:19 -37.03458 174.70496 1173 ft 140 kts 71°
2026-04-30 22:19 -37.02818 174.72803 757 ft 140 kts 71°
2026-04-30 22:20 -37.02492 174.73981 564 ft 142 kts 72°
2026-04-30 22:20 -37.01854 174.76311 184 ft 143 kts 72°
2026-04-30 22:20 -37.01529 174.77475 36 ft 139 kts 73°
2026-04-30 22:21 -37.01249 174.78464 31 ft 104 kts 70°
2026-04-30 22:21 -37.01044 174.79190 34 ft 75 kts 72°
2026-04-30 22:21 -37.00899 174.79587 38 ft 32 kts 51°
2026-04-30 22:21 -37.00805 174.79703 39 ft 8 kts 36°
2026-04-30 22:22 -37.00755 174.79727 41 ft 6 kts
2026-04-30 22:22 -37.00725 174.79706 41 ft 4 kts 292°
2026-04-30 22:22 -37.00713 174.79680 41 ft 2 kts 338°
2026-04-30 22:22 -37.00693 174.79669 41 ft 3 kts 336°
2026-04-30 22:23 -37.00678 174.79660 41 ft 1 kts 332°
2026-04-30 22:23 -37.00666 174.79645 41 ft 4 kts 292°
2026-04-30 22:23 -37.00663 174.79565 39 ft 11 kts 255°
2026-04-30 22:23 -37.00692 174.79465 38 ft 12 kts 251°
2026-04-30 22:24 -37.00713 174.79387 38 ft 5 kts 250°
2026-04-30 22:24 -37.00740 174.79338 37 ft 7 kts 211°
2026-04-30 22:24 -37.00798 174.79317 35 ft 9 kts 209°
2026-04-30 22:24 -37.00836 174.79251 36 ft 10 kts 245°
2026-04-30 22:25 -37.00869 174.79144 37 ft 15 kts 250°
2026-04-30 22:25 -37.00908 174.78996 36 ft 19 kts 251°
2026-04-30 22:25 -37.00954 174.78834 32 ft 20 kts 250°
2026-04-30 22:25 -37.00998 174.78673 31 ft 19 kts 253°
2026-04-30 22:26 -37.01073 174.78371 31 ft 16 kts 268°
2026-04-30 22:26 -37.01010 174.78268 31 ft 14 kts 326°
2026-04-30 22:26 -37.00943 174.78180 33 ft 13 kts 300°
2026-04-30 22:27 -37.00912 174.78114 34 ft 4 kts 312°
2026-04-30 22:27 -37.00894 174.78105 35 ft 2 kts
2026-04-30 22:27 -37.00841 174.78136 35 ft 4 kts 37°
2026-04-30 22:28 -37.00832 174.78146 35 ft 0 kts 39°